Location: Warszawa
(52.2500°N, 21.0000°E)
Time: 00:06:18
(UTC+02:00)

AO-27 - Pass Details

Date: 22 April 2024
Orbit: 783 x 797 km, 98.8° (Epoch: 26 May)

Event Time Altitude Azimuth Distance (km) Brightness Sun altitude
Exits shadow 21:06:47 - 175° (S) 2,955 10.2 -11.3°
Reaches altitude 10° 21:08:17 10° 178° (S) 2,363 9.8 -11.5°
Maximum altitude 21:13:27 60° 258° (WSW) 916 8.2 -12.1°
Drops below altitude 10° 21:18:39 10° 338° (NNW) 2,381 11.2 -12.7°
Sets 21:21:02 0° 343° (NNW) 3,315 12.0 -13.0°
